Weather reports worldwide

Advertisment
Öhringen, Germany (10742): temperature & dewpoint: 05.12.2019 10:00:00 - 11.12.2019 10:00:00 (CET)Öhringen, Germany (10742): temperature 5cm & temperature -5cm: 05.12.2019 10:00:00 - 11.12.2019 10:00:00 (CET)Öhringen, Germany (10742): temperature -20cm & temperature -100cm: 05.12.2019 10:00:00 - 11.12.2019 10:00:00 (CET)Öhringen, Germany (10742): wind speed & gusts: 05.12.2019 10:00:00 - 11.12.2019 10:00:00 (CET)Öhringen, Germany (10742): wind direction: 05.12.2019 10:00:00 - 11.12.2019 10:00:00 (CET)Öhringen, Germany (10742): reduced air pressure: 05.12.2019 10:00:00 - 11.12.2019 10:00:00 (CET)Öhringen, Germany (10742): visibility: 05.12.2019 10:00:00 - 11.12.2019 10:00:00 (CET)Öhringen, Germany (10742): sunshine duration: 05.12.2019 10:00:00 - 11.12.2019 10:00:00 (CET)Öhringen, Germany (10742): precipitation: 05.12.2019 10:00:00 - 11.12.2019 10:00:00 (CET)
Date & Time tt [°C] td [°C] tt 5cm [°C] tt -5cm [°C] tt -20cm [°C] tt -100cm [°C] ff [km/h] ff [kn] fx [km/h] fx [kn] dd ppp [hPa] vv [km] sd [min] rr [mm]
11.12.2019 10:00:00 1,1 -2,7 0,5 1,4 3,8 9,2 4 2 9 5 ENE 1015,2 39 0 0,0
11.12.2019 09:00:00 -0,6 -3,1 -1,2 1,3 3,9 9,2 7 4 9 5 E 1016,1 33 0 0,0
11.12.2019 08:00:00 -0,8 -4,0 -2,2 1,3 3,9 9,2 5 3 8 4 ESE 1016,8 39 0 0,0
11.12.2019 07:00:00 0,0 -4,4 -2,5 1,3 4,0 9,2 3 1 14 7 SE 1017,5 50 0 0,0
11.12.2019 06:00:00 0,9 -4,8 -1,3 1,3 4,0 9,2 7 4 16 8 SSE 1017,7 57 0 0,0
11.12.2019 05:00:00 1,2 -4,4 -1,3 1,4 4,1 9,2 6 3 17 9 SSE 1018,3 53 0 0,0
11.12.2019 04:00:00 1,5 -4,1 -0,1 1,5 4,2 9,2 9 5 17 9 SSE 1019,2 46 0 0,0
11.12.2019 03:00:00 1,6 -3,6 0,3 1,5 4,2 9,2 10 5 18 10 SSE 1020,6 46 0 0,0
11.12.2019 02:00:00 1,3 -2,7 -0,5 1,5 4,3 9,2 7 4 19 10 S 1021,6 39 0 0,0
11.12.2019 01:00:00 1,5 -2,6 0,3 1,5 4,4 9,2 11 6 21 11 SSE 1022,4 36 0 0,0
11.12.2019 00:00:00 0,8 -2,7 -0,3 1,5 4,5 9,2 12 7 18 10 SSE 1023,5 38 0 0,0
10.12.2019 23:00:00 0,5 -2,9 -1,2 1,5 4,6 9,2 9 5 16 9 SE 1024,2 31 0 0,0
10.12.2019 22:00:00 0,5 -2,6 -1,6 1,6 4,7 9,2 9 5 14 8 SSE 1025,0 31 0 0,0
10.12.2019 21:00:00 0,5 -2,0 -1,5 1,7 4,8 9,2 9 5 14 8 SSE 1025,6 30 0 0,0
10.12.2019 20:00:00 0,4 -1,4 -1,1 1,8 4,9 9,2 8 4 13 7 SE 1026,1 22 0 0,0
10.12.2019 19:00:00 0,8 -0,9 -0,8 1,9 5,1 9,2 7 4 13 7 SSE 1026,5 21 0 0,0
10.12.2019 18:00:00 1,5 -0,2 -1,0 2,3 5,2 9,2 6 4 10 5 SE 1026,8 21 0 0,0
10.12.2019 17:00:00 2,1 0,3 0,2 3,1 5,2 9,2 7 4 10 6 SE 1027,1 21 0 0,0
10.12.2019 16:00:00 3,5 0,3 1,7 3,9 5,1 9,2 6 4 14 7 SSE 1027,5 24 29 0,0
10.12.2019 15:00:00 4,7 0,2 4,0 4,8 5,0 9,2 6 3 16 8 SSW 1027,9 29 60 0,0
10.12.2019 14:00:00 4,9 0,2 6,2 5,1 4,8 9,2 10 5 19 11 WSW 1028,6 28 58 0,0
10.12.2019 13:00:00 4,9 0,5 6,5 4,6 4,7 9,2 11 6 19 10 WSW 1029,0 27 59 0,0
10.12.2019 12:00:00 3,8 0,3 5,6 3,6 4,8 9,2 12 7 21 11 WSW 1029,6 23 59 0,0
10.12.2019 11:00:00 3,1 0,1 4,7 2,4 4,8 9,1 13 7 20 11 WSW 1029,5 22 60 0,0
10.12.2019 10:00:00 2,5 -0,2 1,5 1,8 5,0 9,2 7 4 12 6 SSW 1028,8 23 52 0,0
10.12.2019 09:00:00 1,0 -0,3 -0,5 1,8 5,1 9,2 6 3 11 6 S 1028,9 18 0 0,0
10.12.2019 08:00:00 1,1 -0,2 -1,0 1,8 5,3 9,2 9 5 19 10 W 1027,9 17 0 0,0
10.12.2019 07:00:00 1,3 0,1 -0,6 2,1 5,5 9,2 13 7 21 12 W 1026,9 16 0 0,0
10.12.2019 06:00:00 1,7 0,5 0,2 2,3 5,6 9,2 11 6 18 10 W 1025,8 17 0 0,0
10.12.2019 05:00:00 2,1 0,5 -0,1 2,7 5,8 9,2 12 7 21 11 W 1024,5 22 0 0,0
10.12.2019 04:00:00 2,9 1,1 0,8 3,5 5,9 9,2 13 7 24 13 WNW 1023,5 23 0 0,0
10.12.2019 03:00:00 3,7 1,3 1,9 3,8 6,0 9,2 16 9 23 12 WNW 1022,4 31 0 0,0
10.12.2019 02:00:00 4,3 2,0 3,0 4,5 6,1 9,2 13 7 25 14 WNW 1020,8 34 0 0,0
10.12.2019 01:00:00 4,5 2,8 3,6 5,0 6,1 9,2 16 9 43 23 NW 1018,8 41 0 0,2
10.12.2019 00:00:00 5,2 2,7 4,3 5,2 6,1 9,2 21 11 40 22 NW 1017,0 53 0 0,1
09.12.2019 23:00:00 5,2 4,6 4,8 5,3 6,2 9,2 12 7 26 14 W 1014,9 8 0 0,7
09.12.2019 22:00:00 5,5 4,7 4,9 5,4 6,2 9,2 15 8 26 14 W 1013,4 9 0 0,0
09.12.2019 21:00:00 5,7 4,7 5,1 5,6 6,2 9,2 11 6 27 15 W 1011,9 31 0 0,1
09.12.2019 20:00:00 5,8 4,9 5,3 5,6 6,3 9,2 10 6 23 12 W 1010,1 30 0 0,0
09.12.2019 19:00:00 5,8 4,9 5,1 5,6 6,3 9,2 13 7 29 16 W 1008,5 32 0 0,0
09.12.2019 18:00:00 5,6 5,1 5,2 5,8 6,3 9,2 15 8 25 13 W 1007,1 14 0 0,8
09.12.2019 17:00:00 5,7 4,7 5,1 5,9 6,3 9,2 19 11 36 20 WSW 1006,0 6 0 1,7
09.12.2019 16:00:00 6,5 4,4 5,5 6,1 6,3 9,2 19 11 35 19 WSW 1004,7 34 0 0,0
09.12.2019 15:00:00 7,0 4,2 5,9 6,6 6,2 9,2 18 10 29 16 WSW 1004,2 55 0 0,9
09.12.2019 14:00:00 7,6 3,8 6,3 6,8 6,2 9,2 16 9 37 20 SW 1003,5 50 0 0,1
09.12.2019 13:00:00 8,0 3,8 7,2 6,8 6,1 9,2 13 7 39 21 SW 1003,4 45 0 0,3
09.12.2019 12:00:00 7,5 3,6 6,0 6,6 6,0 9,2 20 11 44 24 SW 1004,0 11 1 0,1
09.12.2019 11:00:00 8,3 2,8 8,0 6,2 6,0 9,2 22 12 43 23 SW 1003,9 45 19 0,0
09.12.2019 10:00:00 8,1 2,7 7,2 5,4 6,0 9,2 21 12 45 25 SW 1003,9 74 51 0,0
09.12.2019 09:00:00 7,3 3,0 5,7 4,9 6,1 9,2 21 11 38 21 SW 1004,0 55 12 0,0
09.12.2019 08:00:00 7,4 3,3 5,8 5,2 6,2 9,2 20 11 36 19 SSW 1004,4 36 0 0,0
09.12.2019 07:00:00 7,3 3,0 5,1 5,1 6,2 9,2 15 8 - - SW 1004,8 75 0 0,0
09.12.2019 06:00:00 6,0 4,0 4,3 5,3 6,3 9,2 10 5 29 16 SW 1005,4 53 0 0,0
09.12.2019 05:00:00 6,1 4,2 4,9 5,6 6,3 9,2 21 11 46 25 W 1005,7 40 0 1,5
09.12.2019 04:00:00 7,7 3,2 5,6 5,6 6,4 9,2 18 10 38 21 SW 1005,2 13 0 0,0
09.12.2019 03:00:00 7,0 3,9 5,5 5,8 6,4 9,2 12 6 34 18 WSW 1006,4 36 0 0,0
09.12.2019 02:00:00 7,4 4,4 6,3 6,0 6,5 9,2 19 11 31 17 WSW 1006,7 38 0 0,0
09.12.2019 01:00:00 6,9 4,7 5,3 6,2 6,5 9,2 16 9 31 17 SW 1006,3 46 0 0,0
09.12.2019 00:00:00 7,3 5,5 6,1 6,7 6,5 9,2 19 10 36 19 WSW 1006,3 56 0 0,5
08.12.2019 23:00:00 7,7 5,5 6,6 7,2 6,4 9,2 28 15 62 34 W 1006,3 12 0 0,9
08.12.2019 22:00:00 9,4 8,5 8,5 7,3 6,4 9,2 15 8 32 18 WSW 1004,9 4,2 0 0,2
08.12.2019 21:00:00 10,2 7,4 8,7 7,3 6,3 9,2 20 11 39 21 SW 1005,0 32 0 0,0
08.12.2019 20:00:00 10,6 6,9 9,2 7,2 6,3 9,2 22 12 38 21 SW 1005,3 75 0 0,0
08.12.2019 19:00:00 9,7 7,3 8,3 7,2 6,2 9,2 19 10 37 20 WSW 1006,1 14 0 0,5
08.12.2019 18:00:00 10,9 6,5 9,0 7,1 6,1 9,2 16 8 30 16 SW 1006,1 75 0 0,0
08.12.2019 17:00:00 9,9 7,2 8,1 7,1 6,1 9,2 12 6 19 10 SSW 1007,1 57 0 0,7
08.12.2019 16:00:00 9,9 7,0 8,0 7,2 6,0 9,3 9 5 22 12 SSW 1007,8 22 0 0,5
08.12.2019 15:00:00 11,3 5,4 9,9 7,4 5,9 9,3 14 7 29 16 SW 1008,0 73 0 0,0
08.12.2019 14:00:00 11,2 5,2 10,3 7,5 5,7 9,3 15 8 28 15 SSW 1009,0 68 0 0,0
08.12.2019 13:00:00 11,0 4,7 10,8 7,3 5,6 9,3 16 9 33 18 SW 1010,3 75 0 0,0
08.12.2019 12:00:00 10,1 4,1 9,6 7,0 5,5 9,3 18 10 35 19 SW 1011,3 63 0 0,0
08.12.2019 11:00:00 9,8 3,7 9,2 6,5 5,4 9,3 18 10 33 18 SW 1012,3 75 1 0,0
08.12.2019 10:00:00 9,3 3,7 9,1 6,0 5,3 9,3 14 8 27 15 SW 1012,9 75 0 0,0
08.12.2019 09:00:00 8,8 3,5 7,6 5,4 5,3 9,3 13 7 31 17 SW 1013,5 68 0 0,0
08.12.2019 08:00:00 8,7 3,5 7,4 5,3 5,3 9,3 14 8 29 16 SW 1013,8 75 0 0,0
08.12.2019 07:00:00 8,7 3,6 7,3 5,4 5,3 9,3 16 9 34 18 SW 1014,1 75 0 0,0
08.12.2019 06:00:00 8,6 3,8 7,4 5,3 5,2 9,3 18 10 31 17 SW 1015,0 75 0 0,0
08.12.2019 05:00:00 8,2 4,2 7,0 5,3 5,2 9,3 16 9 29 16 WSW 1015,7 75 0 0,0
08.12.2019 04:00:00 8,0 4,7 6,9 5,3 5,2 9,3 14 7 27 14 WSW 1016,4 67 0 0,0
08.12.2019 03:00:00 7,8 4,6 6,7 5,2 5,2 9,4 13 7 19 11 WSW 1017,2 75 0 0,0
08.12.2019 02:00:00 7,6 4,9 6,5 5,2 5,1 9,4 10 5 16 9 SW 1017,8 72 0 0,0
08.12.2019 01:00:00 7,5 5,1 6,5 5,2 5,1 9,4 9 5 24 13 WSW 1018,4 47 0 0,0
08.12.2019 00:00:00 7,5 5,4 6,5 5,2 5,1 9,4 14 8 27 14 SW 1018,9 52 0 0,0
07.12.2019 23:00:00 7,4 5,2 6,5 5,3 5,0 9,4 14 8 26 14 WSW 1019,5 59 0 0,0
07.12.2019 22:00:00 7,9 5,7 6,8 5,3 5,0 9,4 13 7 27 14 WSW 1019,3 53 0 0,0
07.12.2019 21:00:00 7,5 5,7 6,2 5,2 5,0 9,4 13 7 26 14 WSW 1019,4 46 0 0,0
07.12.2019 20:00:00 7,3 5,8 5,8 5,3 5,0 9,4 14 7 27 14 SW 1019,4 50 0 0,1
07.12.2019 19:00:00 7,7 5,3 6,4 5,4 4,9 9,4 10 5 18 10 WSW 1019,3 39 0 0,0
07.12.2019 18:00:00 7,7 5,2 6,5 5,4 4,9 9,4 9 5 20 11 WSW 1018,7 58 0 0,0
07.12.2019 17:00:00 8,1 5,3 6,7 5,9 4,7 9,5 15 8 35 19 WSW 1018,3 54 0 0,0
07.12.2019 16:00:00 8,6 5,3 7,8 6,2 4,6 9,5 25 13 42 23 W 1017,8 58 0 0,0
07.12.2019 15:00:00 8,7 5,6 8,0 6,3 4,4 9,5 19 10 36 19 WSW 1017,3 65 0 0,0
07.12.2019 14:00:00 8,2 6,2 7,5 6,1 4,2 9,5 13 7 38 20 WSW 1017,3 54 0 0,2
07.12.2019 13:00:00 8,2 6,1 7,4 6,0 4,1 9,5 23 13 35 19 W 1017,3 20 0 0,3
07.12.2019 12:00:00 8,2 6,3 7,7 5,7 3,9 9,5 14 8 35 19 WSW 1017,4 47 1 0,0
07.12.2019 11:00:00 8,0 6,2 7,5 5,3 3,7 9,5 21 11 42 23 W 1017,3 51 1 0,2
07.12.2019 10:00:00 7,6 6,3 7,0 4,9 3,5 9,5 21 12 34 19 W 1016,7 35 0 0,0
07.12.2019 09:00:00 7,2 6,4 6,4 4,6 3,3 9,5 14 8 45 24 WSW 1016,3 34 0 2,0
07.12.2019 08:00:00 7,5 6,2 6,5 4,3 3,1 9,5 31 17 53 29 W 1015,4 6 0 1,9
07.12.2019 07:00:00 7,5 6,1 6,4 4,0 2,9 9,6 16 9 39 21 WSW 1014,6 8 0 0,7
07.12.2019 06:00:00 7,9 5,9 6,6 3,6 2,7 9,6 23 12 45 25 WSW 1014,1 27 0 0,0
07.12.2019 05:00:00 7,8 6,1 6,7 3,0 2,5 9,6 21 11 35 19 WSW 1013,6 59 0 0,0
07.12.2019 04:00:00 7,4 6,4 6,3 2,1 2,5 9,6 18 10 37 20 WSW 1013,5 29 0 0,2
07.12.2019 03:00:00 6,9 6,4 5,9 1,1 2,4 9,6 16 8 35 19 WSW 1013,2 16 0 0,8
07.12.2019 02:00:00 5,7 4,4 4,4 0,6 2,4 9,6 8 4 20 11 W 1013,2 12 0 1,0
07.12.2019 01:00:00 7,2 3,2 5,1 0,5 2,4 9,6 13 7 22 12 W 1012,9 28 0 0,0
07.12.2019 00:00:00 4,7 1,3 2,2 0,4 2,4 9,6 10 5 16 8 WSW 1013,5 28 0 0,0
06.12.2019 23:00:00 2,3 1,0 1,2 0,3 2,4 9,6 5 3 9 5 W 1014,4 11 0 0,2
06.12.2019 22:00:00 1,8 -0,1 0,7 0,3 2,3 9,6 2 1 6 3 WNW 1015,0 12 0 0,0
06.12.2019 21:00:00 0,9 -0,6 0,6 0,2 2,3 9,6 2 1 9 5 SE 1015,6 10 0 0,0
06.12.2019 20:00:00 0,1 -1,2 -0,1 0,1 2,3 9,7 7 4 10 5 SE 1016,2 7 0 0,0
06.12.2019 19:00:00 0,2 -1,3 -0,6 0,0 2,3 9,7 2 1 7 4 S 1016,2 9 0 0,0
06.12.2019 18:00:00 0,6 -1,4 -1,1 0,0 2,3 9,7 5 3 8 4 W 1016,2 9 0 0,0
06.12.2019 17:00:00 1,5 -1,1 -0,4 0,0 2,3 9,7 5 3 9 5 NNW 1016,5 16 0 0,0
06.12.2019 16:00:00 2,2 -1,1 0,0 -0,1 2,3 9,7 5 3 9 5 SSE 1016,7 17 9 0,0
06.12.2019 15:00:00 2,8 -1,3 1,3 -0,1 2,3 9,7 3 1 7 4 NE 1017,5 18 50 0,0
06.12.2019 14:00:00 2,0 -2,5 3,2 -0,1 2,3 9,7 4 2 7 4 NNW 1018,6 18 60 0,0
06.12.2019 13:00:00 1,9 -3,3 2,9 -0,2 2,3 9,7 3 2 7 4 WNW 1019,7 19 60 0,0
06.12.2019 12:00:00 -0,5 -3,3 0,5 -0,2 2,4 9,7 7 4 10 5 W 1021,0 15 60 0,0
06.12.2019 11:00:00 -1,3 -3,7 0,0 -0,4 2,4 9,7 4 2 10 5 WNW 1022,1 9 60 0,0
06.12.2019 10:00:00 -2,6 -5,1 -1,8 -0,7 2,5 9,7 4 2 6 4 SE 1022,1 8 60 0,0
06.12.2019 09:00:00 -4,3 -5,3 -6,0 -0,8 2,5 9,8 3 2 7 4 N 1022,2 7 9 0,0
06.12.2019 08:00:00 -4,7 -5,7 -6,5 -0,8 2,5 9,8 5 3 8 5 ESE 1022,0 7 0 0,0
06.12.2019 07:00:00 -3,8 -4,5 -6,4 -0,7 2,6 9,8 5 3 10 5 NNW 1021,9 4,5 0 0,0
06.12.2019 06:00:00 -4,2 -5,0 -6,2 -0,5 2,6 9,8 0 0 6 3 N 1021,7 4,4 0 0,0
06.12.2019 05:00:00 -4,4 -5,3 -6,8 -0,4 2,7 9,8 3 2 8 5 N 1022,3 7 0 0,0
06.12.2019 04:00:00 -3,6 -4,6 -5,3 -0,3 2,7 9,8 5 3 9 5 SE 1022,7 7 0 0,0
06.12.2019 03:00:00 -2,9 -4,0 -4,1 -0,2 2,8 9,8 6 3 11 6 S 1023,0 8 0 0,0
06.12.2019 02:00:00 -3,2 -4,5 -4,3 0,0 2,8 9,8 7 4 11 6 SSE 1023,2 6 0 0,0
06.12.2019 01:00:00 -2,7 -3,8 -4,5 0,1 2,8 9,8 6 4 8 5 SSE 1023,5 6 0 0,0
06.12.2019 00:00:00 -3,0 -4,1 -4,2 0,2 2,8 9,8 7 4 10 5 SE 1023,7 6 0 0,0
05.12.2019 23:00:00 -2,5 -3,6 -4,2 0,3 2,9 9,8 5 3 6 3 SSE 1023,9 6 0 0,0
05.12.2019 22:00:00 -2,1 -3,2 -4,6 0,4 2,9 9,9 5 3 10 6 S 1024,1 7 0 0,0
05.12.2019 21:00:00 -1,4 -2,9 -3,2 0,5 2,9 9,9 6 3 9 5 SSE 1024,1 9 0 0,0
05.12.2019 20:00:00 -0,9 -2,5 -3,3 0,6 2,8 9,9 6 3 9 5 S 1024,2 10 0 0,0
05.12.2019 19:00:00 -0,9 -2,5 -2,3 0,6 2,8 9,9 5 3 10 5 SSE 1024,1 9 0 0,0
05.12.2019 18:00:00 -0,1 -2,1 -1,6 0,5 2,8 9,9 8 4 9 5 SSE 1023,9 10 0 0,0
05.12.2019 17:00:00 1,6 -1,4 -2,4 0,5 2,8 9,9 3 2 6 3 WSW 1023,5 13 0 0,0
05.12.2019 16:00:00 2,8 -1,4 0,0 0,4 2,8 9,9 6 4 14 7 WNW 1023,4 17 56 0,0
05.12.2019 15:00:00 3,5 -1,6 2,1 0,3 2,8 9,9 10 6 15 8 W 1023,4 19 60 0,0
05.12.2019 14:00:00 3,7 -2,5 5,4 0,1 2,8 9,9 7 4 12 6 W 1023,6 19 60 0,0
05.12.2019 13:00:00 3,3 -2,1 4,3 0,1 2,9 9,9 5 3 8 4 SSE 1023,7 16 60 0,0
05.12.2019 12:00:00 1,5 -3,0 2,2 0,0 2,9 9,9 3 1 8 4 N 1024,1 13 60 0,0
05.12.2019 11:00:00 0,6 -3,5 0,5 0,0 3,0 9,9 4 2 6 3 SSE 1024,6 12 60 0,0
05.12.2019 10:00:00 -1,3 -4,8 -0,8 -0,1 3,0 9,9 3 2 5 3 N 1024,6 12 60 0,0

tt = temperature
td = dewpoint
tt 5cm = temperature 5cm
tt -5cm = temperature -5cm
tt -20cm = temperature -20cm
tt -100cm = temperature -100cm
ff = wind speed
fx = gusts
dd = wind direction
ppp = reduced air pressure
vv = visibility
sd = sunshine duration
rr = precipitation

Next stations